| time (UTC) | temp F | wind direction | speed knots | gust knots | rain 1hr in | rain 24hr in | rain mn in | humidity % | barometer mb |
| 20260505124515 | 52 | 19 | 1.7 | 3.5 | 0.00 | 0.00 | 0.00 | 92 | 1015.6 |
| 20260505123010 | 52 | 360 | 0.9 | 2.6 | 0.00 | 0.00 | 0.00 | 92 | 1015.7 |
| 20260505121522 | 52 | 5 | 0.0 | 3.5 | 0.00 | 0.00 | 0.00 | 92 | 1015.6 |
| 20260505120033 | 52 | 15 | 0.0 | 2.6 | 0.00 | 0.00 | 0.00 | 92 | 1015.5 |
| 20260505114516 | 52 | 346 | 1.7 | 3.5 | 0.00 | 0.00 | 0.00 | 91 | 1015.3 |
| 20260505113015 | 53 | 28 | 0.9 | 2.6 | 0.00 | 0.00 | 0.00 | 91 | 1015.4 |
| 20260505111522 | 53 | 360 | 1.7 | 2.6 | 0.00 | 0.00 | 0.00 | 89 | 1015.3 |
| 20260505101524 | 53 | 22 | 1.7 | 3.5 | 0.00 | 0.00 | 0.00 | 86 | 1015.0 |
| 20260505100028 | 53 | 352 | 0.9 | 1.7 | 0.00 | 0.00 | 0.00 | 87 | 1015.0 |
| 20260505094518 | 53 | 37 | 0.9 | 2.6 | 0.00 | 0.00 | 0.00 | 87 | 1015.0 |
| 20260505093014 | 53 | 15 | 0.9 | 2.6 | 0.00 | 0.00 | 0.00 | 87 | 1014.9 |
| 20260505091532 | 53 | 11 | 0.0 | 1.7 | 0.00 | 0.00 | 0.00 | 87 | 1014.7 |
| 20260505090027 | 52 | 17 | 0.0 | 1.7 | 0.00 | 0.00 | 0.00 | 88 | 1014.7 |
| 20260505084543 | 52 | 13 | 1.7 | 3.5 | 0.00 | 0.00 | 0.00 | 88 | 1014.6 |
| 20260505083042 | 52 | 352 | 1.7 | 3.5 | 0.00 | 0.00 | 0.00 | 88 | 1014.5 |
| 20260505081526 | 52 | 321 | 0.9 | 2.6 | 0.00 | 0.00 | 0.00 | 87 | 1014.4 |
| 20260505080033 | 53 | 360 | 0.9 | 2.6 | 0.00 | 0.00 | 0.00 | 87 | 1014.4 |
| 20260505074518 | 53 | 9 | 0.9 | 4.3 | 0.00 | 0.00 | 0.00 | 86 | 1014.3 |
| 20260505073024 | 53 | 11 | 2.6 | 4.3 | 0.00 | 0.00 | 0.00 | 85 | 1014.0 |
| 20260505071512 | 54 | 11 | 0.9 | 2.6 | 0.00 | 0.00 | 0.00 | 85 | 1014.0 |
| 20260505070013 | 54 | 352 | 0.0 | 4.3 | 0.00 | 0.00 | 0.00 | 85 | 1013.9 |
| 20260505064508 | 54 | 339 | 1.7 | 5.2 | 0.00 | 0.00 | 0.00 | 84 | 1013.6 |
| 20260505063032 | 54 | 330 | 0.9 | 4.3 | 0.00 | 0.00 | 0.00 | 83 | 1013.5 |
| 20260505061527 | 55 | 311 | 0.9 | 2.6 | 0.00 | 0.00 | 0.00 | 82 | 1013.2 |
| 20260505060038 | 56 | 352 | 0.9 | 7.8 | 0.00 | 0.00 | 0.00 | 80 | 1013.0 |
| 20260505054518 | 56 | 331 | 2.6 | 7.0 | 0.00 | 0.00 | 0.00 | 79 | 1012.9 |
| 20260505053013 | 57 | 322 | 0.9 | 6.1 | 0.00 | 0.00 | 0.00 | 78 | 1012.9 |
| 20260505051520 | 58 | 352 | 3.5 | 4.3 | 0.00 | 0.00 | 0.00 | 76 | 1012.8 |
| 20260505041516 | 62 | 13 | 2.6 | 6.1 | 0.00 | 0.00 | 0.00 | 70 | 1012.0 |
| 20260505040019 | 62 | 342 | 1.7 | 4.3 | 0.00 | 0.00 | 0.00 | 69 | 1011.6 |
| 20260505034528 | 63 | 346 | 4.3 | 7.8 | 0.00 | 0.00 | 0.00 | 67 | 1011.4 |
| 20260505033022 | 64 | 345 | 2.6 | 8.7 | 0.00 | 0.00 | 0.00 | 66 | 1011.3 |
| 20260505031520 | 66 | 337 | 0.9 | 7.0 | 0.00 | 0.00 | 0.00 | 65 | 1011.1 |
| 20260505030016 | 68 | 11 | 4.3 | 7.8 | 0.00 | 0.00 | 0.00 | 62 | 1010.8 |
| 20260505024515 | 70 | 350 | 2.6 | 7.0 | 0.00 | 0.00 | 0.00 | 65 | 1010.7 |
| 20260505023018 | 71 | 320 | 0.9 | 2.6 | 0.00 | 0.00 | 0.00 | 63 | 1010.4 |
| 20260505021530 | 72 | 307 | 1.7 | 3.5 | 0.00 | 0.00 | 0.00 | 62 | 1010.5 |
| 20260505020034 | 72 | 315 | 1.7 | 3.5 | 0.00 | 0.00 | 0.00 | 59 | 1010.6 |
| 20260505014535 | 73 | 323 | 0.9 | 3.5 | 0.00 | 0.00 | 0.00 | 58 | 1010.6 |
| 20260505013036 | 73 | 228 | 1.7 | 4.3 | 0.00 | 0.00 | 0.00 | 59 | 1010.7 |
| 20260505011533 | 73 | 241 | 2.6 | 7.0 | 0.00 | 0.00 | 0.00 | 57 | 1010.7 |
| 20260505010019 | 73 | 212 | 1.7 | 5.2 | 0.00 | 0.00 | 0.00 | 56 | 1010.7 |
| 20260505004520 | 73 | 13 | 1.7 | 5.2 | 0.00 | 0.00 | 0.00 | 57 | 1010.9 |
| 20260505003024 | 73 | 228 | 0.9 | 6.1 | 0.00 | 0.00 | 0.00 | 57 | 1011.0 |
| 20260505001515 | 73 | 338 | 1.7 | 7.0 | 0.00 | 0.00 | 0.00 | 56 | 1011.0 |
| 20260505000013 | 73 | 190 | 1.7 | 5.2 | 0.00 | 0.00 | 0.00 | 56 | 1011.2 |
| 20260504234528 | 73 | 294 | 1.7 | 3.5 | 0.00 | 0.00 | 0.00 | 56 | 1011.2 |
| 20260504233022 | 73 | 178 | 1.7 | 7.8 | 0.00 | 0.00 | 0.00 | 58 | 1011.2 |
| 20260504231525 | 73 | 238 | 1.7 | 7.8 | 0.00 | 0.00 | 0.00 | 56 | 1011.2 |
| 20260504230022 | 72 | 155 | 3.5 | 5.2 | 0.00 | 0.00 | 0.00 | 58 | 1011.5 |
| 20260504224518 | 72 | 120 | 3.5 | 7.8 | 0.00 | 0.00 | 0.00 | 56 | 1011.7 |
| 20260504223016 | 72 | 183 | 2.6 | 7.0 | 0.00 | 0.00 | 0.00 | 62 | 1012.0 |
| 20260504221511 | 71 | 202 | 4.3 | 7.0 | 0.00 | 0.00 | 0.00 | 59 | 1012.3 |
| 20260504220008 | 71 | 169 | 1.7 | 6.1 | 0.00 | 0.00 | 0.00 | 60 | 1012.3 |
| 20260504214509 | 69 | 209 | 4.3 | 7.0 | 0.00 | 0.00 | 0.00 | 63 | 1012.5 |
| 20260504213020 | 69 | 238 | 5.2 | 7.8 | 0.00 | 0.00 | 0.00 | 61 | 1012.6 |
| 20260504211511 | 69 | 176 | 1.7 | 6.1 | 0.00 | 0.00 | 0.00 | 62 | 1012.8 |
| 20260504210020 | 68 | 248 | 3.5 | 7.0 | 0.00 | 0.00 | 0.00 | 64 | 1013.1 |
| 20260504204519 | 67 | 200 | 1.7 | 6.1 | 0.00 | 0.00 | 0.00 | 64 | 1013.3 |
| 20260504203013 | 66 | 190 | 2.6 | 7.8 | 0.00 | 0.00 | 0.00 | 65 | 1013.4 |
| 20260504201510 | 67 | 146 | 1.7 | 6.1 | 0.00 | 0.00 | 0.00 | 64 | 1013.6 |
| 20260504200021 | 66 | 244 | 5.2 | 7.0 | 0.00 | 0.00 | 0.00 | 65 | 1013.7 |
| 20260504194516 | 65 | 204 | 3.5 | 7.0 | 0.00 | 0.00 | 0.00 | 66 | 1013.8 |
| 20260504193012 | 64 | 188 | 4.3 | 7.0 | 0.00 | 0.00 | 0.00 | 68 | 1013.8 |
| 20260504191511 | 64 | 149 | 2.6 | 6.1 | 0.00 | 0.00 | 0.00 | 68 | 1013.9 |
| 20260504190017 | 63 | 189 | 4.3 | 7.8 | 0.00 | 0.00 | 0.00 | 71 | 1014.1 |
| 20260504184514 | 63 | 173 | 4.3 | 7.8 | 0.00 | 0.00 | 0.00 | 70 | 1014.2 |
| 20260504183010 | 62 | 182 | 4.3 | 7.8 | 0.00 | 0.00 | 0.00 | 70 | 1014.2 |
| 20260504181523 | 62 | 222 | 1.7 | 7.8 | 0.00 | 0.00 | 0.00 | 71 | 1014.1 |
| 20260504180023 | 61 | 153 | 6.1 | 9.6 | 0.00 | 0.00 | 0.00 | 71 | 1014.1 |
| 20260504174517 | 61 | 193 | 1.7 | 9.6 | 0.00 | 0.00 | 0.00 | 73 | 1014.2 |
| 20260504173016 | 61 | 167 | 4.3 | 9.6 | 0.00 | 0.00 | 0.00 | 72 | 1014.2 |
| 20260504171510 | 60 | 142 | 4.3 | 7.8 | 0.00 | 0.00 | 0.00 | 77 | 1014.1 |